STARLINK-1844 (47134 NORAD) Tracking and Keplerian Element Data

This shows tracking and keplerian element data for the satellite.

Feedback or suggestion? Click here.




ElementValue
Catalog47134
NameSTARLINK-1844
Epoch Orbit896
Epoch Day16.19309147
Epoch Year2021
RAAN97.5121
Inclination53.0559
Eccentricity0.0008308
Argument of Perigee272.9831
Mean Anonmoly87.0228
Mean Motion15.53015605
Decay Rate-0.00056364
L11 47134U 20088N 21016.19309147 -.00056364 00000-0 -88515-3 0 9997
L22 47134 53.0559 97.5121 0008308 272.9831 87.0228 15.53015605 8965

Live tracking and technical data element details for STARLINK-1844 (NORAD 47134). STARLINK-1844 can be tracked NOW for your location showing map with azimuth and elevation plus other details from your city location.

Track the satellite on the map from your city or location and see movement details for azimuth, elevation, latitude, longitude, range, height, and movement on the map or in text.







IsCatalogInMostPopularTable: catalog: 47134, numindb: 13
Update: records affected: 1



GetName: 47134 STARLINK-1844

Hit Count: updated at: Sun, 17 Jan 2021 10:07:41 GMT